Location: Chervonnoye
(48.6000°N, 34.4000°E)
Time: 21:14:56
(UTC+00:00)

X-37B - Pass Details

Date: 01 October 2021
Orbit: 385 x 389 km, 45.0° (Epoch: 13 October)

Event Time Altitude Azimuth Distance (km) Brightness Sun altitude
Exits shadow 02:43:46 15° 246° (WSW) 1,136 2.3 -10.4°
Maximum altitude 02:45:33 24° 200° (SSW) 844 2.0 -10.1°
Drops below altitude 10° 02:48:12 10° 144° (SE) 1,411 3.8 -9.7°
Sets 02:50:29 0° 130° (SE) 2,264 5.2 -9.3°
